Biloxi, MS

4:07 PM CDT on July 27, 2017 (GMT -0500)
Keesler Air Force Base

Weather History for KBIX - March, 2013

Change the Weather History Date:

Saturday, March 23, 2013

  Actual Average Record
Temperature  
Mean Temperature 68 °F -  
Max Temperature 74 °F 69 °F 81 °F (2011)
Min Temperature 62 °F 49 °F 31 °F (1968)
Cooling Degree Days 3    
Growing Degree Days 18 (Base 50)    
Moisture  
Dew Point 66 °F    
Average Humidity 90    
Maximum Humidity 100    
Minimum Humidity 78    
Precipitation  
Precipitation 0.03 in - - ()
Sea Level Pressure  
Sea Level Pressure 29.72 in    
Wind  
Wind Speed 9 mph (SE)    
Max Wind Speed 15 mph    
Max Gust Speed 18 mph    
Visibility 8 miles    
Events Rain , Thunderstorm    
Averages and records for this station are not official NWS values.
T = Trace of Precipitation, MM = Missing Value Source: NWS Daily Summary

Daily Weather History Graph

Daily Weather History Graph

Search for Another Location

Airport or City:

Trip Planner

Search our weather history database for the weather conditions in past years. The results will help you decide how hot, cold, wet, or windy it might be!

Date:

Astronomy

Mar. 23, 2013 Rise Set
Actual Time 6:55 AM CDT 7:09 PM CDT
Civil Twilight 6:31 AM CDT 7:33 PM CDT
Nautical Twilight 6:03 AM CDT 8:01 PM CDT
Astronomical Twilight 5:35 AM CDT 8:29 PM CDT
Moon 3:48 PM CDT (3/23) 4:17 AM CDT (3/23)
Length of Visible Light 13h 01m
Length of Day
12h 13m
Waxing Gibbous, 85% of the Moon is Illuminated
Mar 23
Waxing Gibbous
Mar 27
Full
Apr 2
Last Quarter
Apr 10
New
Apr 18
First Quarter

Hourly Weather History & Observations

Time (CDT) Temp. Dew Point Humidity Pressure Visibility Wind Dir Wind Speed Gust Speed Precip Events Conditions
12:45 AM 64.4 °F 59.0 °F 83% 29.86 in 10.0 mi ESE 10.4 mph - N/A Rain Light Rain
12:56 AM 64.4 °F 59.0 °F 83% 29.87 in 10.0 mi ESE 9.2 mph - N/A   Overcast
12:58 AM 64.4 °F 59.0 °F 83% 29.88 in 10.0 mi ESE 9.2 mph - 0.00 in   Overcast
1:17 AM 64.4 °F 59.0 °F 83% 29.85 in 10.0 mi East 10.4 mph - N/A Rain Light Rain
1:30 AM 64.4 °F 60.8 °F 88% 29.84 in 10.0 mi ESE 12.7 mph - N/A   Overcast
1:58 AM 63.9 °F 60.1 °F 87% 29.83 in 10.0 mi East 12.7 mph 18.4 mph 0.00 in   Overcast
2:58 AM 63.7 °F 59.9 °F 87% 29.84 in 10.0 mi ENE 4.6 mph - N/A   Overcast
3:26 AM 64.4 °F 59.0 °F 83% 29.81 in 10.0 mi East 6.9 mph - N/A Rain Light Rain
3:36 AM 62.6 °F 59.0 °F 88% 29.81 in 10.0 mi East 8.1 mph - N/A   Overcast
3:58 AM 63.5 °F 59.4 °F 86% 29.81 in 10.0 mi East 6.9 mph - 0.00 in   Overcast
4:58 AM 63.3 °F 58.5 °F 84% 29.81 in 10.0 mi East 9.2 mph - N/A   Overcast
5:03 AM 62.6 °F 59.0 °F 88% 29.80 in 10.0 mi East 5.8 mph - N/A   Overcast
5:08 AM 62.6 °F 59.0 °F 88% 29.80 in 10.0 mi East 6.9 mph - N/A   Overcast
5:38 AM 62.6 °F 59.0 °F 88% 29.80 in 10.0 mi East 6.9 mph - N/A   Overcast
5:58 AM 63.9 °F 58.6 °F 83% 29.82 in 10.0 mi East 6.9 mph - N/A   Overcast
6:45 AM 64.4 °F 59.0 °F 83% 29.80 in 10.0 mi ESE 10.4 mph - N/A   Overcast
6:50 AM 64.4 °F 59.0 °F 83% 29.80 in 10.0 mi SE 10.4 mph - N/A   Overcast
6:55 AM 64.4 °F 59.0 °F 83% 29.80 in 10.0 mi SE 10.4 mph - N/A   Overcast
6:58 AM 64.4 °F 59.0 °F 83% 29.81 in 10.0 mi SE 10.4 mph - N/A   Overcast
7:58 AM 65.5 °F 61.3 °F 86% 29.80 in 10.0 mi ESE 13.8 mph - N/A   Scattered Clouds
8:58 AM 66.6 °F 61.7 °F 84% 29.80 in 10.0 mi SE 13.8 mph - N/A   Mostly Cloudy
9:58 AM 67.5 °F 63.5 °F 87% 29.81 in 10.0 mi SE 10.4 mph - N/A   Partly Cloudy
10:28 AM 69.8 °F 64.4 °F 83% 29.81 in 10.0 mi ESE 11.5 mph - N/A   Mostly Cloudy
10:43 AM 69.8 °F 64.4 °F 83% 29.81 in 10.0 mi ESE 6.9 mph - N/A   Mostly Cloudy
10:48 AM 69.8 °F 64.4 °F 83% 29.81 in 10.0 mi SE 10.4 mph - N/A   Overcast
10:58 AM 70.2 °F 65.3 °F 85% 29.82 in 10.0 mi SE 8.1 mph - N/A   Overcast
11:03 AM 69.8 °F 64.4 °F 83% 29.82 in 10.0 mi SE 10.4 mph - N/A   Overcast
11:43 AM 73.4 °F 66.2 °F 78% 29.81 in 10.0 mi ESE 8.1 mph - N/A   Mostly Cloudy
11:48 AM 73.4 °F 66.2 °F 78% 29.81 in 10.0 mi ESE 6.9 mph - N/A   Mostly Cloudy
11:58 AM 73.4 °F 66.2 °F 78% 29.81 in 10.0 mi Variable 4.6 mph - N/A   Mostly Cloudy
12:13 PM 71.6 °F 66.2 °F 83% 29.79 in 10.0 mi SE 2.3 mph - N/A Thunderstorm Overcast
12:14 PM 71.6 °F 66.2 °F 83% 29.79 in 10.0 mi SSE 2.3 mph - N/A Thunderstorm Thunderstorm
12:19 PM 71.6 °F 66.2 °F 83% 29.79 in 10.0 mi SSE 4.6 mph - N/A Thunderstorm Thunderstorm
12:25 PM 71.6 °F 66.2 °F 83% 29.79 in 9.0 mi SSE 5.8 mph - N/A Rain , Thunderstorm Light Thunderstorms and Rain
12:29 PM 69.8 °F 66.2 °F 88% 29.78 in 8.0 mi SSE 5.8 mph - N/A Rain , Thunderstorm Light Rain
12:31 PM 69.8 °F 66.2 °F 88% 29.78 in 8.0 mi SE 5.8 mph - N/A Rain , Thunderstorm Light Thunderstorms and Rain
12:41 PM 69.8 °F 68.0 °F 94% 29.77 in 10.0 mi SE 8.1 mph - N/A Rain , Thunderstorm Light Thunderstorms and Rain
12:46 PM 69.8 °F 68.0 °F 94% 29.77 in 10.0 mi SE 5.8 mph - N/A Rain , Thunderstorm Light Thunderstorms and Rain
12:47 PM 69.8 °F 68.0 °F 94% 29.77 in 10.0 mi SE 5.8 mph - N/A Rain Light Rain
12:50 PM 69.8 °F 68.0 °F 94% 29.77 in 10.0 mi SE 6.9 mph - N/A   Overcast
12:55 PM 69.8 °F 68.0 °F 94% 29.77 in 10.0 mi SSE 8.1 mph - N/A   Overcast
12:58 PM 69.8 °F 68.0 °F 94% 29.78 in 10.0 mi SE 8.1 mph - 0.02 in   Overcast
1:03 PM 69.8 °F 68.0 °F 94% 29.76 in 10.0 mi SSE 6.9 mph - N/A Thunderstorm Overcast
1:18 PM 71.6 °F 69.8 °F 94% 29.75 in 10.0 mi SE 6.9 mph - N/A   Overcast
1:58 PM 74.3 °F 69.6 °F 85% 29.74 in 10.0 mi SE 5.8 mph - N/A   Overcast
2:13 PM 73.4 °F 68.0 °F 83% 29.72 in 10.0 mi East 5.8 mph - N/A   Overcast
2:18 PM 73.4 °F 68.0 °F 83% 29.72 in 10.0 mi East 5.8 mph - N/A   Overcast
2:58 PM 72.5 °F 68.7 °F 88% 29.71 in 10.0 mi ESE 4.6 mph - N/A   Overcast
3:08 PM 71.6 °F 68.0 °F 88% 29.70 in 10.0 mi SE 5.8 mph - N/A   Overcast
3:38 PM 71.6 °F 69.8 °F 94% 29.68 in 9.0 mi SE 6.9 mph - N/A   Overcast
3:48 PM 71.6 °F 69.8 °F 94% 29.67 in 10.0 mi SE 6.9 mph - N/A   Overcast
3:58 PM 72.0 °F 69.6 °F 92% 29.68 in 10.0 mi SE 5.8 mph - N/A   Overcast
4:04 PM 71.6 °F 69.8 °F 94% 29.68 in 10.0 mi SE 6.9 mph - N/A Rain , Thunderstorm Light Rain
4:14 PM 71.6 °F 69.8 °F 94% 29.67 in 10.0 mi SE 6.9 mph - N/A Rain , Thunderstorm Light Rain
4:19 PM 71.6 °F 69.8 °F 94% 29.67 in 10.0 mi SSE 4.6 mph - N/A Rain Light Rain
4:22 PM 71.6 °F 69.8 °F 94% 29.66 in 10.0 mi SSE 5.8 mph - N/A   Overcast
4:32 PM 71.6 °F 69.8 °F 94% 29.65 in 10.0 mi SE 8.1 mph - N/A   Overcast
4:42 PM 71.6 °F 69.8 °F 94% 29.65 in 9.0 mi Variable 6.9 mph - N/A   Overcast
4:52 PM 71.6 °F 69.8 °F 94% 29.65 in 10.0 mi SE 5.8 mph - N/A   Overcast
4:58 PM 72.0 °F 69.8 °F 93% 29.66 in 10.0 mi SE 6.9 mph - 0.00 in   Overcast
5:28 PM 71.6 °F 69.8 °F 94% 29.64 in 8.0 mi ESE 9.2 mph - N/A   Overcast
5:38 PM 71.6 °F 69.8 °F 94% 29.64 in 4.0 mi ESE 6.9 mph - N/A   Overcast
5:43 PM 69.8 °F 68.0 °F 94% 29.64 in 3.0 mi SE 5.8 mph - N/A   Overcast
5:48 PM 69.8 °F 69.8 °F 100% 29.63 in 2.5 mi SE 5.8 mph - N/A   Overcast
5:53 PM 71.6 °F 69.8 °F 94% 29.63 in 2.0 mi SE 6.9 mph - N/A   Overcast
5:55 PM 71.6 °F 69.8 °F 94% 29.63 in 2.0 mi SE 8.1 mph - N/A   Light Drizzle
5:58 PM 71.6 °F 69.8 °F 94% 29.64 in 2.0 mi SE 8.1 mph - N/A   Light Drizzle
6:03 PM 71.6 °F 69.8 °F 94% 29.63 in 2.5 mi SE 9.2 mph - N/A   Light Drizzle
6:04 PM 71.6 °F 69.8 °F 94% 29.63 in 2.5 mi SE 9.2 mph - N/A   Light Drizzle
6:05 PM 71.6 °F 69.8 °F 94% 29.63 in 2.5 mi SE 9.2 mph - N/A   Overcast
6:10 PM 71.6 °F 69.8 °F 94% 29.63 in 2.5 mi SE 9.2 mph - N/A   Overcast
6:15 PM 71.6 °F 69.8 °F 94% 29.63 in 4.0 mi SSE 8.1 mph - N/A   Overcast
6:50 PM 69.8 °F 68.0 °F 94% 29.63 in 6.0 mi SSE 9.2 mph - N/A   Overcast
6:58 PM 70.0 °F 68.9 °F 96% 29.64 in 6.0 mi SSE 9.2 mph - 0.01 in   Overcast
7:03 PM 69.8 °F 68.0 °F 94% 29.63 in 6.0 mi SSE 10.4 mph - N/A   Overcast
7:28 PM 69.8 °F 68.0 °F 94% 29.62 in 8.0 mi South 9.2 mph - N/A   Overcast
7:43 PM 69.8 °F 68.0 °F 94% 29.62 in 9.0 mi South 11.5 mph 17.3 mph N/A   Overcast
7:53 PM 69.8 °F 68.0 °F 94% 29.62 in 9.0 mi South 11.5 mph - N/A   Overcast
7:58 PM 69.1 °F 67.8 °F 96% 29.63 in 9.0 mi South 12.7 mph - N/A   Overcast
8:03 PM 68.0 °F 68.0 °F 100% 29.62 in 8.0 mi South 11.5 mph - N/A   Overcast
8:18 PM 68.0 °F 68.0 °F 100% 29.62 in 8.0 mi South 12.7 mph - N/A   Overcast
8:43 PM 68.0 °F 68.0 °F 100% 29.61 in 7.0 mi South 12.7 mph - N/A   Overcast
8:58 PM 68.7 °F 68.0 °F 98% 29.62 in 6.0 mi South 13.8 mph - N/A   Overcast
9:28 PM 68.0 °F 68.0 °F 100% 29.61 in 7.0 mi South 15.0 mph - N/A   Overcast
9:53 PM 68.0 °F 68.0 °F 100% 29.61 in 5.0 mi South 13.8 mph - N/A   Overcast
9:58 PM 68.0 °F 68.0 °F 100% 29.62 in 5.0 mi South 13.8 mph - N/A   Overcast
10:03 PM 68.0 °F 68.0 °F 100% 29.61 in 5.0 mi South 12.7 mph - N/A   Overcast
10:33 PM 68.0 °F 68.0 °F 100% 29.61 in 5.0 mi South 12.7 mph - N/A   Overcast
10:48 PM 68.0 °F 68.0 °F 100% 29.60 in 6.0 mi SSW 13.8 mph - N/A   Overcast
10:58 PM 68.5 °F 67.6 °F 97% 29.61 in 5.0 mi South 13.8 mph - N/A   Overcast
11:18 PM 68.0 °F 66.2 °F 94% 29.60 in 4.0 mi SSW 10.4 mph - N/A   Overcast
11:23 PM 68.0 °F 66.2 °F 94% 29.60 in 4.0 mi SSW 11.5 mph - N/A   Overcast
11:58 PM 67.5 °F 66.6 °F 97% 29.61 in 5.0 mi SW 11.5 mph - N/A   Overcast